Location: Unspecified
(0.0000°N, 0.0000°E)
Time: 12:23:41
(UTC+00:00)

N. Korean satellite - Pass Details

Date: 07 December 2019
Orbit: 455 x 506 km, 97.2° (Epoch: 10 December)

Event Time Altitude Azimuth Distance (km) Brightness Sun altitude
Rises 18:16:08 0° 201° (SSW) 2,584 11.0 -5.7°
Reaches altitude 10° 18:19:01 10° 226° (SW) 1,706 10.7 -6.4°
Maximum altitude 18:20:59 14° 259° (W) 1,473 10.5 -6.8°
Drops below altitude 10° 18:22:58 10° 291° (WNW) 1,709 10.1 -7.3°
Sets 18:25:52 0° 317° (NW) 2,593 10.5 -7.9°
